Location: Unspecified
(0.0000°N, 0.0000°E)
Time: 09:20:45
(UTC+00:00)

CZ-3C DEB - Pass Details

Date: 07 March 2026
Orbit: 509 x 34331 km, 19.9° (Epoch: 18 April)

Event Time Altitude Azimuth Distance (km) Brightness Sun altitude
Rises 21:36:49 0° 260° (W) 8,291 ? -51.1°
Reaches altitude 10° 21:40:39 10° 255° (WSW) 8,409 ? -52.0°
Maximum altitude 00:22:27 65° 204° (SSW) 30,509 ? -84.0°
Drops below altitude 10° 07:10:45 10° 54° (NE) 4,628 ? 14.9°
Sets 07:12:43 0° 58° (ENE) 5,016 ? 15.3°
